Westerly, RI

2:20 AM EST on December 12, 2017 (GMT -0500)
Westerly State

Weather History for KWST - October, 2012

Change the Weather History Date:

Thursday, October 18, 2012

  Actual Average (KGON) Record (KGON)
Temperature  
Mean Temperature 50 °F -  
Max Temperature 63 °F 62 °F 74 °F (1968)
Min Temperature 37 °F 42 °F 24 °F (1978)
Degree Days  
Heating Degree Days 16    
Moisture  
Dew Point 49 °F    
Average Humidity 85    
Maximum Humidity 100    
Minimum Humidity 64    
Precipitation  
Precipitation 0.00 in - - ()
Sea Level Pressure  
Sea Level Pressure 30.07 in    
Wind  
Wind Speed 3 mph (ESE)    
Max Wind Speed 9 mph    
Max Gust Speed -    
Visibility 10 miles    
Events      
Averages and records for this station are not official NWS values.
T = Trace of Precipitation, MM = Missing Value Source: NWS Daily Summary

Daily Weather History Graph

Daily Weather History Graph

Search for Another Location

Airport or City:

Trip Planner

Search our weather history database for the weather conditions in past years. The results will help you decide how hot, cold, wet, or windy it might be!

Date:

Astronomy

Oct. 18, 2012 Rise Set
Actual Time 7:02 AM EDT 6:00 PM EDT
Civil Twilight 6:34 AM EDT 6:28 PM EDT
Nautical Twilight 6:02 AM EDT 7:01 PM EDT
Astronomical Twilight 5:30 AM EDT 7:32 PM EDT
Moon 10:43 AM EDT (10/18) 8:29 PM EDT (10/18)
Length of Visible Light 11h 54m
Length of Day
10h 58m
Waxing Crescent, 14% of the Moon is Illuminated
Oct 18
Waxing Crescent
Oct 21
First Quarter
Oct 29
Full
Nov 6
Last Quarter
Nov 13
New

Hourly Weather History & Observations

Time (EDT) Temp. Dew Point Humidity Pressure Visibility Wind Dir Wind Speed Gust Speed Precip Events Conditions
12:53 AM 42.1 °F 41.0 °F 96% 30.03 in 9.0 mi Calm Calm - N/A   Clear
1:53 AM 41.0 °F 39.0 °F 93% 30.03 in 10.0 mi Calm Calm - N/A   Clear
2:53 AM 41.0 °F 39.9 °F 96% 30.03 in 8.0 mi Calm Calm - N/A   Clear
3:53 AM 39.9 °F 39.0 °F 97% 30.04 in 8.0 mi Calm Calm - N/A   Clear
4:53 AM 37.9 °F 37.0 °F 97% 30.04 in 9.0 mi Calm Calm - N/A   Clear
5:53 AM 39.0 °F 37.0 °F 93% 30.05 in 8.0 mi Calm Calm - N/A   Clear
6:53 AM 37.0 °F 36.0 °F 96% 30.07 in 9.0 mi Calm Calm - N/A   Clear
7:53 AM 39.9 °F 39.0 °F 97% 30.07 in 7.0 mi Calm Calm - N/A   Clear
8:53 AM 46.9 °F 44.1 °F 90% 30.09 in 10.0 mi Calm Calm - N/A   Clear
9:53 AM 57.0 °F 50.0 °F 77% 30.10 in 10.0 mi Calm Calm - N/A   Mostly Cloudy
10:53 AM 61.0 °F 50.0 °F 67% 30.09 in 10.0 mi SE 8.1 mph - N/A   Mostly Cloudy
11:04 AM 60.8 °F 50.0 °F 68% 30.10 in 10.0 mi SE 5.8 mph - N/A   Scattered Clouds
11:53 AM 62.1 °F 50.0 °F 65% 30.10 in 10.0 mi SSE 8.1 mph - N/A   Partly Cloudy
12:53 PM 62.1 °F 50.0 °F 65% 30.09 in 10.0 mi SSE 9.2 mph - N/A   Clear
1:53 PM 61.0 °F 50.0 °F 67% 30.08 in 10.0 mi SE 6.9 mph - N/A   Partly Cloudy
2:53 PM 61.0 °F 48.9 °F 64% 30.07 in 10.0 mi South 6.9 mph - N/A   Clear
3:53 PM 61.0 °F 50.0 °F 67% 30.07 in 10.0 mi SE 8.1 mph - N/A   Clear
4:53 PM 61.0 °F 51.1 °F 70% 30.07 in 10.0 mi SSE 6.9 mph - N/A   Mostly Cloudy
5:25 PM 59.0 °F 51.8 °F 77% 30.05 in 10.0 mi SE 8.1 mph - N/A   Scattered Clouds
5:53 PM 57.9 °F 52.0 °F 81% 30.06 in 10.0 mi ESE 5.8 mph - N/A   Scattered Clouds
6:04 PM 57.2 °F 51.8 °F 82% 30.06 in 10.0 mi ESE 4.6 mph - N/A   Mostly Cloudy
6:45 PM 57.2 °F 53.6 °F 88% 30.06 in 10.0 mi SE 8.1 mph - N/A   Partly Cloudy
6:53 PM 59.0 °F 54.0 °F 83% 30.07 in 10.0 mi SE 6.9 mph - N/A   Scattered Clouds
7:16 PM 57.2 °F 53.6 °F 88% 30.06 in 10.0 mi ESE 9.2 mph - N/A   Mostly Cloudy
7:28 PM 57.2 °F 53.6 °F 88% 30.07 in 10.0 mi ESE 6.9 mph - N/A   Partly Cloudy
7:45 PM 57.2 °F 55.4 °F 94% 30.07 in 10.0 mi East 6.9 mph - N/A   Mostly Cloudy
7:53 PM 59.0 °F 55.0 °F 87% 30.07 in 10.0 mi East 5.8 mph - N/A   Mostly Cloudy
8:53 PM 59.0 °F 57.0 °F 93% 30.09 in 10.0 mi ESE 5.8 mph - N/A   Overcast
9:42 PM 57.2 °F 57.2 °F 100% 30.09 in 10.0 mi East 3.5 mph - N/A   Scattered Clouds
10:53 PM 57.9 °F 57.0 °F 97% 30.07 in 9.0 mi East 5.8 mph - N/A   Scattered Clouds
11:34 PM 57.2 °F 57.2 °F 100% 30.05 in 9.0 mi ENE 5.8 mph - N/A   Scattered Clouds
11:53 PM 57.9 °F 57.0 °F 97% 30.05 in 9.0 mi East 4.6 mph - N/A   Mostly Cloudy